Terminal Aerodrome Forecast
Issued by NWS

Home | Current Version | Previous Version | Graphics & Text | Print | Product List | Glossary On
Versions: 1 2 3 4 5 6 7 8 9 10 11 12 13 14 15 16 17 18 19 20 21 22 23 24 25 26 27
000
FTUS43 KABR 261726
TAFATY
TAF
KATY 261726Z 2618/2718 26008KT P6SM BKN120
     FM262000 20006KT P6SM VCTS BKN090CB
     FM270000 12004KT P6SM BKN200
     FM270900 00000KT P6SM BKN060
     FM271300 VRB03KT P6SM BKN025
     FM271500 02004KT P6SM -SHRA BKN020
     FM271700 03006KT P6SM -SHRA BKN035=

USA.gov is the U.S. government's official web portal to all federal, state and local government web resources and services.